TianYi 6 (43158 NORAD) Tracking and Keplerian Element Data

This shows tracking and keplerian element data for the satellite.

Feedback or suggestion? Click here.




ElementValue
Catalog43158
NameTianYi 6
Epoch Orbit2630
Epoch Day193.70505832
Epoch Year2018
RAAN267.5388
Inclination97.5216
Eccentricity0.0015181
Argument of Perigee51.8524
Mean Anonmoly99.6867
Mean Motion15.09764351
Decay Rate6.26E-06
L11 43158U 18008D 18193.70505832 .00000626 00000-0 42632-4 0 9995
L22 43158 97.5216 267.5388 0015181 51.8524 99.6867 15.09764351 26300

Live tracking and technical data element details for TianYi 6 (NORAD 43158). TianYi 6 can be tracked NOW for your location showing map with azimuth and elevation plus other details from your city location.

Track the satellite on the map from your city or location and see movement details for azimuth, elevation, latitude, longitude, range, height, and movement on the map or in text.







IsCatalogInMostPopularTable: catalog: 43158, numindb: 76
Update: records affected: 1



GetName: 43158 TianYi 6

Hit Count: updated at: Fri, 20 Jul 2018 20:33:36 GMT